Auburn, CA

1:59 PM PST on November 11, 2019 (GMT -0800)
Auburn Municipal

Weather History for KAUN - September, 2019

Change the Weather History Date:

Saturday, September 28, 2019

  Actual Average Record
Temperature  
Mean Temperature 54 °F -  
Max Temperature 64 °F 81 °F 100 °F (1963)
Min Temperature 44 °F 56 °F 44 °F (1971)
Degree Days  
Heating Degree Days 11    
Growing Degree Days 4 (Base 50)    
Moisture  
Dew Point 47 °F    
Average Humidity 80    
Maximum Humidity 100    
Minimum Humidity 37    
Precipitation  
Precipitation 0.60 in - - ()
Sea Level Pressure  
Sea Level Pressure 29.75 in    
Wind  
Wind Speed 4 mph ()    
Max Wind Speed 15 mph    
Max Gust Speed 25 mph    
Visibility 8.3 miles    
Events      
Averages and records for this station are not official NWS values.
T = Trace of Precipitation, MM = Missing Value Source: Averaged Metar Reports

Daily Weather History Graph

Daily Weather History Graph

Search for Another Location

Airport or City:

Astronomy

Sep. 28, 2019 Rise Set
Actual Time 6:57 AM PDT 6:51 PM PDT
Civil Twilight 6:30 AM PDT 7:18 PM PDT
Nautical Twilight 5:59 AM PDT 7:49 PM PDT
Astronomical Twilight 5:28 AM PDT 8:20 PM PDT
Moon 6:40 AM PDT (9/28) 7:20 PM PDT (9/28)
Length of Visible Light 12h 47m
Length of Day
11h 54m
New Moon, 0% of the Moon is Illuminated
Sep 28
New Moon
Oct 5
First Quarter
Oct 13
Full
Oct 21
Last Quarter
Oct 27
New

Hourly Weather History & Observations

Time (PDT) Temp. Windchill Dew Point Humidity Pressure Visibility Wind Dir Wind Speed Gust Speed Precip Events Conditions
12:15 AM 55.4 °F - 46.4 °F 72% 29.75 in 10.0 mi SE 4.6 mph - N/A   Clear
12:35 AM 55.4 °F - 46.4 °F 72% 29.75 in 10.0 mi SSE 5.8 mph - N/A   Clear
12:55 AM 55.4 °F - 46.4 °F 72% 29.75 in 10.0 mi SSE 4.6 mph - N/A   Clear
1:15 AM 53.6 °F - 46.4 °F 77% 29.76 in 10.0 mi Calm Calm - N/A   Scattered Clouds
1:35 AM 53.6 °F - 48.2 °F 82% 29.75 in 10.0 mi Calm Calm - N/A   Mostly Cloudy
1:55 AM 51.8 °F - 48.2 °F 88% 29.74 in 10.0 mi SSE 4.6 mph - N/A   Scattered Clouds
2:15 AM 51.8 °F - 48.2 °F 88% 29.74 in 10.0 mi Calm Calm - N/A   Clear
2:55 AM 51.8 °F - 48.2 °F 88% 29.74 in 10.0 mi SE 6.9 mph - N/A   Clear
3:15 AM 50.0 °F - 48.2 °F 94% 29.74 in 10.0 mi Calm Calm - N/A   Clear
3:35 AM 50.0 °F - 48.2 °F 94% 29.74 in 10.0 mi Calm Calm - N/A   Partly Cloudy
3:55 AM 50.0 °F - 50.0 °F 100% 29.74 in 10.0 mi SSE 6.9 mph 12.7 mph N/A   Mostly Cloudy
4:15 AM 51.8 °F - 50.0 °F 94% 29.73 in 10.0 mi SE 9.2 mph - N/A   Overcast
4:35 AM 51.8 °F - 50.0 °F 94% 29.73 in 10.0 mi SE 8.1 mph - N/A   Overcast
4:55 AM 51.8 °F - 50.0 °F 94% 29.74 in 10.0 mi SE 6.9 mph - N/A   Overcast
5:15 AM 51.8 °F - 50.0 °F 94% 29.74 in 10.0 mi SSE 4.6 mph - N/A   Overcast
5:35 AM 51.8 °F - 50.0 °F 94% 29.74 in 5.0 mi SE 9.2 mph 15.0 mph N/A   Overcast
5:55 AM 51.8 °F - 51.8 °F 100% 29.74 in 5.0 mi SSE 6.9 mph - N/A   Mist
6:15 AM 51.8 °F - 51.8 °F 100% 29.74 in 8.0 mi SE 5.8 mph - N/A   Overcast
6:35 AM 53.6 °F - 51.8 °F 94% 29.74 in 9.0 mi SE 4.6 mph - N/A   Overcast
6:55 AM 53.6 °F - 51.8 °F 94% 29.74 in 10.0 mi SE 5.8 mph - N/A   Overcast
7:15 AM 53.6 °F - 50.0 °F 88% 29.74 in 10.0 mi SE 6.9 mph 12.7 mph N/A   Overcast
7:35 AM 53.6 °F - 50.0 °F 88% 29.75 in 10.0 mi Variable 4.6 mph - N/A   Overcast
7:55 AM 53.6 °F - 50.0 °F 88% 29.74 in 10.0 mi SSE 10.4 mph - N/A   Overcast
8:15 AM 53.6 °F - 50.0 °F 88% 29.75 in 8.0 mi South 6.9 mph 12.7 mph N/A   Overcast
8:35 AM 53.6 °F - 51.8 °F 94% 29.75 in 7.0 mi SE 5.8 mph - N/A   Overcast
8:55 AM 53.6 °F - 51.8 °F 94% 29.74 in 10.0 mi SSE 8.1 mph - N/A   Overcast
9:15 AM 53.6 °F - 51.8 °F 94% 29.74 in 10.0 mi SSE 3.5 mph - N/A   Overcast
9:35 AM 53.6 °F - 51.8 °F 94% 29.74 in 6.0 mi South 5.8 mph - N/A   Overcast
9:55 AM 53.6 °F - 51.8 °F 94% 29.75 in 5.0 mi SSW 4.6 mph - N/A   Overcast
10:15 AM 53.6 °F - 50.0 °F 88% 29.75 in 4.0 mi SSW 6.9 mph - N/A   Overcast
10:35 AM 51.8 °F - 50.0 °F 94% 29.76 in 4.0 mi South 8.1 mph - N/A   Overcast
10:55 AM 51.8 °F - 50.0 °F 94% 29.76 in 4.0 mi SSW 8.1 mph - N/A   Overcast
11:15 AM 51.8 °F - 50.0 °F 94% 29.76 in 0.8 mi Calm Calm - N/A   Overcast
11:35 AM 51.8 °F - 50.0 °F 94% 29.77 in 0.8 mi Calm Calm - N/A   Mist
11:55 AM 51.8 °F - 50.0 °F 94% 29.77 in 1.5 mi Calm Calm - 0.01 in   Overcast
12:15 PM 50.0 °F - 50.0 °F 100% 29.77 in 1.5 mi South 6.9 mph - N/A   Overcast
12:35 PM 51.8 °F - 50.0 °F 94% 29.76 in 6.0 mi Calm Calm - N/A   Mostly Cloudy
12:55 PM 53.6 °F - 50.0 °F 88% 29.76 in 10.0 mi Calm Calm - 0.01 in   Overcast
1:15 PM 53.6 °F - 50.0 °F 88% 29.76 in 10.0 mi SE 4.6 mph - N/A   Overcast
1:35 PM 55.4 °F - 50.0 °F 82% 29.75 in 10.0 mi Calm Calm - N/A   Overcast
1:55 PM 55.4 °F - 50.0 °F 82% 29.75 in 10.0 mi Calm Calm - N/A   Overcast
2:15 PM 57.2 °F - 48.2 °F 72% 29.75 in 10.0 mi Calm Calm - N/A   Overcast
2:35 PM 57.2 °F - 48.2 °F 72% 29.74 in 10.0 mi Calm Calm - N/A   Overcast
2:55 PM 60.8 °F - 48.2 °F 63% 29.74 in 10.0 mi Calm Calm - N/A   Mostly Cloudy
3:15 PM 60.8 °F - 46.4 °F 59% 29.74 in 10.0 mi Calm Calm - N/A   Clear
3:35 PM 60.8 °F - 44.6 °F 55% 29.73 in 10.0 mi Calm Calm - N/A   Clear
3:55 PM 62.6 °F - 41.0 °F 45% 29.73 in 10.0 mi Calm Calm - N/A   Clear
4:15 PM 62.6 °F - 42.8 °F 48% 29.73 in 10.0 mi Calm Calm - N/A   Clear
4:35 PM 62.6 °F - 39.2 °F 42% 29.72 in 10.0 mi Calm Calm - N/A   Clear
4:55 PM 64.4 °F - 37.4 °F 37% 29.72 in 10.0 mi Calm Calm - N/A   Clear
5:15 PM 62.6 °F - 37.4 °F 39% 29.71 in 10.0 mi Calm Calm - N/A   Clear
5:35 PM 62.6 °F - 37.4 °F 39% 29.71 in 10.0 mi Calm Calm - N/A   Scattered Clouds
5:55 PM 60.8 °F - 39.2 °F 45% 29.71 in 10.0 mi Calm Calm - N/A   Partly Cloudy
6:15 PM 60.8 °F - 37.4 °F 42% 29.71 in 10.0 mi Calm Calm - N/A   Clear
6:35 PM 59.0 °F - 39.2 °F 48% 29.71 in 10.0 mi Calm Calm - N/A   Clear
6:55 PM 57.2 °F - 42.8 °F 59% 29.70 in 10.0 mi Calm Calm - N/A   Clear
7:15 PM 59.0 °F - 41.0 °F 51% 29.70 in 10.0 mi Calm Calm - N/A   Scattered Clouds
7:35 PM 59.0 °F - 41.0 °F 51% 29.71 in 10.0 mi Calm Calm - N/A   Scattered Clouds
7:55 PM 57.2 °F - 39.2 °F 51% 29.75 in 10.0 mi West 13.8 mph - N/A   Overcast
8:15 PM 48.2 °F - 44.6 °F 87% 29.79 in 2.0 mi NW 11.5 mph 25.3 mph N/A   Overcast
8:35 PM 46.4 °F - 44.6 °F 93% 29.81 in 2.5 mi Calm Calm 12.7 mph N/A   Overcast
8:55 PM 46.4 °F - 44.6 °F 93% 29.82 in 3.0 mi Calm Calm - 0.31 in   Mist
9:15 PM 46.4 °F 45.2 °F 44.6 °F 93% 29.82 in 3.0 mi ENE 3.5 mph - N/A   Overcast
9:35 PM 46.4 °F 41.5 °F 44.6 °F 93% 29.80 in 6.0 mi East 10.4 mph - N/A   Overcast
9:55 PM 48.2 °F - 42.8 °F 82% 29.77 in 10.0 mi ESE 15.0 mph - 0.27 in   Overcast
10:15 PM 46.4 °F 40.1 °F 44.6 °F 93% 29.78 in 10.0 mi East 15.0 mph 20.7 mph N/A   Overcast
10:35 PM 46.4 °F 40.7 °F 44.6 °F 93% 29.79 in 10.0 mi East 12.7 mph - N/A   Mostly Cloudy
10:55 PM 46.4 °F 41.1 °F 42.8 °F 87% 29.80 in 10.0 mi East 11.5 mph - N/A   Clear
11:15 PM 46.4 °F 42.4 °F 42.8 °F 87% 29.80 in 10.0 mi East 8.1 mph - N/A   Clear
11:35 PM 44.6 °F 40.7 °F 42.8 °F 93% 29.81 in 10.0 mi East 6.9 mph - N/A   Clear
11:55 PM 44.6 °F 40.7 °F 42.8 °F 93% 29.81 in 10.0 mi East 6.9 mph - N/A   Clear